Date String (YYYY-MM-DD hh:mm:ss) UTC,Instrument flags,Ambient pressure (hPa),Sample flow (lpm),Bypass flow (lpm),Sample temperature (°C),Ambient temperature (°C),ASC tube jacket temperature (°C),LED temperature (°C),Box temperature (°C),Sample RH (%),Span deviation,Mass concentration (μg/m³),Mass concentration (μg/m³),Mass concentration (μg/m³)
DateTimeUTC,F1_M11,P_M11,Q1_M11,Q2_M11,T1_M11,T2_M11,T3_M11,T4_M11,T5_M11,U1_M11,ZSPAN_M11,X2_M11,X0_M11,X1_M11
2021-12-22 03:00:00,,0822.8,5.01,0.00,25.1,24.2,00.0,34.3,26.8,03.9,0000.0,0000.89,0002.72,0000.61
2021-12-22 03:01:00,,0822.8,4.99,0.00,25.1,24.1,00.0,34.3,26.7,04.0,0000.0,0000.91,0003.04,0000.64
2021-12-22 03:02:00,,0822.7,5.02,0.00,25.0,24.1,00.0,34.2,26.7,04.0,0000.0,0000.94,0003.20,0000.65
2021-12-22 03:03:00,,0822.6,4.99,0.00,25.0,24.1,00.0,34.2,26.6,04.0,0000.0,0000.99,0003.42,0000.68
2021-12-22 03:04:00,,0822.6,5.00,0.00,25.0,24.0,00.0,34.2,26.6,03.7,0000.0,0001.03,0003.55,0000.70
2021-12-22 03:05:00,,0822.6,5.01,0.00,25.0,24.0,00.0,34.2,26.6,03.7,0000.0,0001.07,0004.65,0000.71
2021-12-22 03:06:00,,0822.6,4.99,0.00,25.0,24.0,00.0,34.1,26.7,03.6,0000.0,0001.09,0004.66,0000.71
2021-12-22 03:07:00,,0822.6,5.01,0.00,25.0,24.1,00.0,34.1,26.7,03.6,0000.0,0001.08,0004.87,0000.70
2021-12-22 03:08:00,,0822.6,5.00,0.00,25.0,24.1,00.0,34.1,26.7,03.5,0000.0,0001.05,0004.97,0000.69
2021-12-22 03:09:00,,0822.7,5.00,0.00,25.0,24.2,00.0,34.1,26.8,03.4,0000.0,0000.99,0004.75,0000.67
2021-12-22 03:10:00,,0822.6,5.01,0.00,25.0,24.2,00.0,34.1,26.8,03.5,0000.0,0001.00,0004.83,0000.67
2021-12-22 03:11:00,,0822.6,4.99,0.00,25.0,24.2,00.0,34.1,26.8,03.4,0000.0,0000.95,0004.29,0000.65
2021-12-22 03:12:00,,0822.6,5.00,0.00,25.0,24.3,00.0,34.1,26.9,03.5,0000.0,0000.92,0003.91,0000.63
2021-12-22 03:13:00,,0822.6,5.00,0.00,25.1,24.3,00.0,34.1,26.9,03.4,0000.0,0000.89,0003.88,0000.60
2021-12-22 03:14:00,,0822.6,5.01,0.00,25.1,24.3,00.0,34.1,26.9,03.4,0000.0,0000.85,0003.74,0000.57
2021-12-22 03:15:00,,0822.6,4.99,0.00,25.0,24.3,00.0,34.1,26.8,03.4,0000.0,0000.80,0003.68,0000.54
2021-12-22 03:16:00,,0822.6,5.01,0.00,25.0,24.3,00.0,34.1,26.8,03.5,0000.0,0000.78,0002.84,0000.53
2021-12-22 03:17:00,,0822.6,4.98,0.00,25.1,24.3,00.0,34.1,26.8,03.4,0000.0,0000.73,0002.31,0000.52
2021-12-22 03:18:00,,0822.5,5.00,0.00,25.1,24.3,00.0,34.1,26.8,03.4,0000.0,0000.77,0002.24,0000.52
2021-12-22 03:19:00,,0822.5,5.00,0.00,25.1,24.3,00.0,34.1,26.8,03.2,0000.0,0000.76,0001.83,0000.50
2021-12-22 03:20:00,,0822.6,4.99,0.00,25.1,24.3,00.0,34.1,26.7,03.2,0000.0,0000.75,0001.75,0000.49
2021-12-22 03:21:00,,0822.6,5.01,0.00,25.1,24.3,00.0,34.0,26.7,03.3,0000.0,0000.70,0001.58,0000.48
2021-12-22 03:22:00,,0822.6,4.99,0.00,25.1,24.3,00.0,34.0,26.7,03.4,0000.0,0000.68,0001.40,0000.48
2021-12-22 03:23:00,,0822.5,5.00,0.00,25.1,24.2,00.0,34.0,26.7,03.7,0000.0,0000.76,0001.40,0000.55
2021-12-22 03:24:00,,0822.6,4.99,0.00,25.0,24.2,00.0,34.1,26.7,03.8,0000.0,0000.80,0001.41,0000.57
2021-12-22 03:25:00,,0822.6,5.01,0.00,25.0,24.2,00.0,34.0,26.7,03.8,0000.0,0000.86,0002.16,0000.59
2021-12-22 03:26:00,,0822.4,4.99,0.00,25.0,24.2,00.0,34.0,26.7,03.8,0000.0,0000.91,0003.76,0000.61
2021-12-22 03:27:00,,0822.6,5.01,0.00,25.0,24.2,00.0,34.0,26.7,03.6,0000.0,0000.87,0003.69,0000.59
2021-12-22 03:28:00,,0822.6,4.99,0.00,25.0,24.1,00.0,34.0,26.6,03.7,0000.0,0000.90,0004.40,0000.60
2021-12-22 03:29:00,,0822.6,5.01,0.00,24.9,24.1,00.0,34.0,26.6,03.8,0000.0,0000.94,0004.44,0000.62
2021-12-22 03:30:00,,0822.7,4.98,0.00,24.9,24.0,00.0,34.0,26.6,03.8,0000.0,0001.01,0004.64,0000.65
2021-12-22 03:31:00,,0822.7,5.01,0.00,24.9,24.0,00.0,34.0,26.6,03.8,0000.0,0001.08,0005.02,0000.67
2021-12-22 03:32:00,,0822.7,5.01,0.00,24.9,23.9,00.0,34.0,26.6,03.8,0000.0,0001.15,0006.02,0000.70
2021-12-22 03:33:00,,0822.6,4.98,0.00,24.8,23.9,00.0,34.0,26.5,03.8,0000.0,0001.21,0006.87,0000.73
2021-12-22 03:34:00,,0822.7,5.02,0.00,24.8,23.8,00.0,33.9,26.4,03.7,0000.0,0001.13,0006.75,0000.68
2021-12-22 03:35:00,,0822.8,5.00,0.00,24.7,23.7,00.0,33.9,26.4,03.7,0000.0,0001.12,0007.00,0000.67
2021-12-22 03:36:00,,0822.8,5.01,0.00,24.7,23.7,00.0,33.9,26.4,03.6,0000.0,0001.09,0007.60,0000.66
2021-12-22 03:37:00,,0822.7,4.98,0.00,24.6,23.6,00.0,33.9,26.3,03.6,0000.0,0001.06,0007.13,0000.66
2021-12-22 03:38:00,,0822.7,5.01,0.00,24.6,23.6,00.0,33.8,26.3,03.6,0000.0,0001.07,0007.01,0000.66
2021-12-22 03:39:00,,0822.7,5.00,0.00,24.6,23.6,00.0,33.8,26.2,03.5,0000.0,0001.11,0006.77,0000.68
2021-12-22 03:40:00,,0822.7,5.01,0.00,24.5,23.6,00.0,33.8,26.1,03.6,0000.0,0001.09,0006.46,0000.67
2021-12-22 03:41:00,,0822.6,4.99,0.00,24.5,23.6,00.0,33.7,26.2,03.5,0000.0,0001.01,0006.29,0000.65
2021-12-22 03:42:00,,0822.7,5.00,0.00,24.5,23.6,00.0,33.7,26.2,03.5,0000.0,0000.96,0005.88,0000.63
2021-12-22 03:43:00,,0822.8,5.01,0.00,24.5,23.6,00.0,33.7,26.2,03.6,0000.0,0000.91,0005.24,0000.62
2021-12-22 03:44:00,,0822.8,4.98,0.00,24.5,23.5,00.0,33.7,26.1,03.5,0000.0,0000.88,0004.19,0000.60
2021-12-22 03:45:00,,0822.7,5.00,0.00,24.4,23.5,00.0,33.7,26.1,03.5,0000.0,0000.90,0004.25,0000.60
2021-12-22 03:46:00,,0822.7,5.01,0.00,24.4,23.5,00.0,33.6,26.0,03.5,0000.0,0000.87,0003.83,0000.58
2021-12-22 03:47:00,,0822.7,4.99,0.00,24.4,23.5,00.0,33.6,26.0,03.5,0000.0,0000.83,0002.81,0000.56
2021-12-22 03:48:00,,0822.6,4.99,0.00,24.4,23.6,00.0,33.6,26.0,03.4,0000.0,0000.79,0001.51,0000.54
2021-12-22 03:49:00,,0822.7,5.00,0.00,24.4,23.6,00.0,33.6,26.1,03.3,0000.0,0000.74,0001.32,0000.51
2021-12-22 03:50:00,,0822.7,5.00,0.00,24.4,23.6,00.0,33.6,26.1,03.3,0000.0,0000.67,0001.13,0000.48
2021-12-22 03:51:00,,0822.7,5.01,0.00,24.4,23.6,00.0,33.5,26.2,03.4,0000.0,0000.60,0000.99,0000.45
2021-12-22 03:52:00,,0822.7,5.00,0.00,24.4,23.6,00.0,33.5,26.2,03.4,0000.0,0000.59,0001.01,0000.44
2021-12-22 03:53:00,,0822.6,4.98,0.00,24.4,23.7,00.0,33.5,26.2,03.5,0000.0,0000.58,0001.03,0000.44
2021-12-22 03:54:00,,0822.7,5.01,0.00,24.5,23.7,00.0,33.5,26.2,03.5,0000.0,0000.56,0000.95,0000.41
2021-12-22 03:55:00,,0822.7,5.00,0.00,24.5,23.7,00.0,33.5,26.2,03.5,0000.0,0000.55,0001.00,0000.40
2021-12-22 03:56:00,,0822.6,5.02,0.00,24.5,23.7,00.0,33.5,26.2,03.5,0000.0,0000.56,0001.09,0000.40
2021-12-22 03:57:00,,0822.7,4.99,0.00,24.5,23.7,00.0,33.5,26.2,03.6,0000.0,0000.57,0001.14,0000.42
2021-12-22 03:58:00,,0822.6,5.02,0.00,24.4,23.6,00.0,33.5,26.1,03.6,0000.0,0000.62,0002.02,0000.44
2021-12-22 03:59:00,,0822.6,5.00,0.00,24.4,23.5,00.0,33.5,26.0,03.5,0000.0,0000.68,0003.20,0000.45
